KG0HG Weather Reports


Display with metric or nautical units.
time (UTC)temp
F
wind
direction
speed
MPH
gust
MPH
rain 1hr
in
rain 24hr
in
rain mn
in
humidity
%
barometer
mb
20260903060137 75 166 0.0 0.0 0.00 0.00 0.00 90 1013.1
20260903055634 75 166 0.0 0.0 0.00 0.00 0.00 90 1013.3
20260903055133 75 166 0.0 0.0 0.00 0.00 0.00 90 1013.3
20260903054628 76 166 0.0 0.0 0.00 0.00 0.00 90 1013.5
20260903054124 76 166 0.0 0.0 0.00 0.00 0.00 89 1013.3
20260903053620 76 166 0.0 0.0 0.00 0.00 0.00 89 1013.4
20260903053115 76 166 0.0 0.0 0.00 0.00 0.00 89 1013.3
20260903052611 76 166 0.0 0.0 0.00 0.00 0.00 89 1013.3
20260903052107 76 166 0.0 0.0 0.00 0.00 0.00 89 1013.1
20260903051607 77 166 0.0 0.0 0.00 0.00 0.00 88 1013.1
20260903051102 77 166 0.0 0.0 0.00 0.00 0.00 88 1013.3
20260903050602 77 166 0.0 0.0 0.00 0.00 0.00 88 1013.4
20260903050057 77 166 0.0 0.0 0.00 0.00 0.00 87 1013.1
20260903045556 77 166 0.0 0.0 0.00 0.00 0.00 87 1013.1
20260903045053 77 166 0.0 0.0 0.00 0.00 0.00 86 1013.2
20260903044549 77 166 0.0 0.0 0.00 0.00 0.00 86 1013.3
20260903044044 77 166 0.0 0.0 0.00 0.00 0.00 86 1013.2
20260903043540 78 166 0.0 0.0 0.00 0.00 0.00 86 1013.4
20260903043039 78 166 0.0 0.0 0.00 0.00 0.00 86 1013.2
20260903042534 78 166 0.0 0.0 0.00 0.00 0.00 85 1013.2
20260903042029 78 166 0.0 0.0 0.00 0.00 0.00 85 1013.4
20260903041526 78 166 0.0 0.0 0.00 0.00 0.00 85 1013.4
20260903041021 78 166 0.0 0.0 0.00 0.00 0.00 84 1013.3
20260903040520 79 166 0.0 0.0 0.00 0.00 0.00 84 1013.6
20260903040017 79 166 0.0 0.0 0.00 0.00 0.00 84 1013.4
20260903035512 79 166 0.0 0.0 0.00 0.00 0.00 83 1013.2
20260903035008 79 166 0.0 0.0 0.00 0.00 0.00 83 1013.4
20260903034508 79 166 0.0 0.0 0.00 0.00 0.00 82 1013.6
20260903034002 79 166 0.0 0.0 0.00 0.00 0.00 82 1013.4
20260903033457 80 166 0.0 0.0 0.00 0.00 0.00 82 1013.4
20260903032952 80 166 0.0 0.0 0.00 0.00 0.00 81 1013.6
20260903032448 80 166 0.0 0.0 0.00 0.00 0.00 81 1013.4
20260903031943 80 166 0.0 0.0 0.00 0.00 0.00 81 1013.3
20260903031437 80 166 0.0 0.0 0.00 0.00 0.00 80 1013.3
20260903030932 80 166 0.0 0.0 0.00 0.00 0.00 79 1013.3
20260903030428 81 166 0.0 0.0 0.00 0.00 0.00 78 1013.5
20260903025923 81 166 0.0 0.0 0.00 0.00 0.00 78 1013.4
20260903025414 81 166 0.0 0.0 0.00 0.00 0.00 77 1013.5
20260903024909 82 166 0.0 0.0 0.00 0.00 0.00 76 1013.4
20260903024407 82 166 0.0 0.0 0.00 0.00 0.00 75 1013.5
20260903023857 82 166 0.0 0.0 0.00 0.00 0.00 74 1013.5
20260903023353 83 166 0.0 0.0 0.00 0.00 0.00 74 1013.5
20260903022848 83 166 0.0 0.0 0.00 0.00 0.00 72 1013.3
20260903022347 83 166 0.0 0.0 0.00 0.00 0.00 71 1013.3
20260903021846 84 166 0.0 0.0 0.00 0.00 0.00 70 1013.3
20260903021342 84 166 0.0 0.0 0.00 0.00 0.00 69 1013.5
20260903020841 84 166 0.0 0.0 0.00 0.00 0.00 68 1013.1
20260903020336 85 166 0.0 0.0 0.00 0.00 0.00 67 1012.9
20260903015831 85 166 0.0 0.0 0.00 0.00 0.00 66 1012.8
20260903015327 85 166 0.0 0.0 0.00 0.00 0.00 65 1012.9
20260903014822 86 166 0.0 0.0 0.00 0.00 0.00 65 1012.9
20260903014321 86 166 0.0 0.0 0.00 0.00 0.00 64 1012.7
20260903013817 87 166 0.0 0.0 0.00 0.00 0.00 63 1012.8
20260903013316 87 166 0.0 0.0 0.00 0.00 0.00 62 1012.8
20260903012815 87 166 0.0 0.0 0.00 0.00 0.00 61 1012.5
20260903012309 88 166 0.0 0.0 0.00 0.00 0.00 60 1012.6
20260903011809 88 166 0.0 0.0 0.00 0.00 0.00 59 1012.5
20260903011303 89 166 0.0 0.0 0.00 0.00 0.00 58 1012.5
20260903010758 89 166 0.0 0.0 0.00 0.00 0.00 57 1012.5
20260903010254 89 166 0.0 0.0 0.00 0.00 0.00 56 1012.4
20260903005752 90 166 0.0 0.0 0.00 0.00 0.00 55 1012.6
20260903005247 90 166 0.0 0.0 0.00 0.00 0.00 54 1012.3
20260903004743 90 166 1.0 1.0 0.00 0.00 0.00 53 1012.3
20260903004238 91 166 0.0 0.0 0.00 0.00 0.00 53 1012.5
20260903003734 91 166 0.0 0.0 0.00 0.00 0.00 53 1012.3
20260903003229 92 166 0.0 0.0 0.00 0.00 0.00 52 1012.6
20260903002723 92 167 0.0 0.0 0.00 0.00 0.00 51 1012.3
20260903002218 93 166 0.0 0.0 0.00 0.00 0.00 50 1012.4
20260903001713 93 166 0.0 0.0 0.00 0.00 0.00 50 1012.4
20260903001206 95 167 0.0 0.0 0.00 0.00 0.00 47 1012.5
20260903000703 95 167 1.0 3.0 0.00 0.00 0.00 45 1012.4
20260903000204 95 167 0.0 0.0 0.00 0.00 0.00 46 1012.5
20260902235700 96 167 1.0 2.0 0.00 0.00 0.00 44 1012.6
20260902235156 96 167 0.0 1.0 0.00 0.00 0.00 45 1012.5
20260902234650 96 167 1.0 2.0 0.00 0.00 0.00 44 1012.5
20260902234149 96 167 0.0 2.0 0.00 0.00 0.00 44 1012.3
20260902233644 96 167 1.0 3.0 0.00 0.00 0.00 42 1012.4
20260902233144 96 169 2.0 3.0 0.00 0.00 0.00 42 1012.5
20260902232643 97 171 1.0 3.0 0.00 0.00 0.00 42 1012.5
20260902232141 97 172 2.0 5.0 0.00 0.00 0.00 42 1012.7
20260902231636 97 168 3.0 3.0 0.00 0.00 0.00 42 1012.5
20260902231131 97 168 0.0 1.0 0.00 0.00 0.00 45 1012.4
20260902230626 97 168 0.0 0.0 0.00 0.00 0.00 44 1012.6
20260902230125 97 168 0.0 2.0 0.00 0.00 0.00 44 1012.6
20260902225620 96 169 1.0 2.0 0.00 0.00 0.00 43 1012.7
20260902225119 96 166 3.0 3.0 0.00 0.00 0.00 42 1012.6
20260902224618 96 166 1.0 3.0 0.00 0.00 0.00 42 1012.7
20260902224114 97 168 2.0 3.0 0.00 0.00 0.00 43 1012.4
20260902223611 98 168 4.0 6.0 0.00 0.00 0.00 41 1012.4
20260902223109 98 170 2.0 3.0 0.00 0.00 0.00 42 1012.6
20260902222608 98 164 1.0 5.0 0.00 0.00 0.00 40 1012.7
20260902222107 97 165 2.0 3.0 0.00 0.00 0.00 41 1012.6
20260902221602 97 159 4.0 6.0 0.00 0.00 0.00 41 1012.5
20260902221102 97 164 4.0 5.0 0.00 0.00 0.00 41 1012.4
20260902220557 97 170 3.0 7.0 0.00 0.00 0.00 41 1012.5
20260902220052 97 167 2.0 6.0 0.00 0.00 0.00 41 1012.5
20260902215548 97 172 0.0 3.0 0.00 0.00 0.00 42 1012.6
20260902215043 97 168 2.0 3.0 0.00 0.00 0.00 42 1012.6
20260902214537 97 165 1.0 1.0 0.00 0.00 0.00 43 1012.7
20260902214037 97 165 3.0 5.0 0.00 0.00 0.00 42 1012.7
20260902213533 98 171 3.0 6.0 0.00 0.00 0.00 41 1012.8
20260902213032 97 169 2.0 6.0 0.00 0.00 0.00 42 1013.0
20260902212527 98 168 2.0 5.0 0.00 0.00 0.00 42 1013.0
20260902212023 98 164 1.0 3.0 0.00 0.00 0.00 42 1013.0
20260902211520 98 167 4.0 7.0 0.00 0.00 0.00 41 1013.2
20260902211014 98 172 2.0 5.0 0.00 0.00 0.00 42 1012.9
20260902210509 97 180 5.0 7.0 0.00 0.00 0.00 42 1013.3
20260902210008 98 192 1.0 3.0 0.00 0.00 0.00 40 1013.3
20260902205502 98 163 2.0 5.0 0.00 0.00 0.00 42 1013.3
20260902204958 97 181 2.0 5.0 0.00 0.00 0.00 43 1013.5
20260902204457 97 154 1.0 3.0 0.00 0.00 0.00 42 1013.5
20260902203953 97 179 1.0 6.0 0.00 0.00 0.00 42 1013.4
20260902203448 98 166 3.0 6.0 0.00 0.00 0.00 41 1013.7
20260902202947 98 161 7.0 9.0 0.00 0.00 0.00 41 1013.7
20260902202443 97 161 2.0 7.0 0.00 0.00 0.00 41 1013.6
20260902201939 96 151 1.0 3.0 0.00 0.00 0.00 43 1013.5
20260902201429 97 185 4.0 6.0 0.00 0.00 0.00 43 1013.8
20260902200928 97 155 0.0 3.0 0.00 0.00 0.00 42 1013.7
20260902200424 98 273 3.0 6.0 0.00 0.00 0.00 41 1013.8
20260902195919 98 169 3.0 3.0 0.00 0.00 0.00 41 1013.9
20260902195414 97 152 2.0 8.0 0.00 0.00 0.00 41 1013.9
20260902194909 97 148 3.0 7.0 0.00 0.00 0.00 41 1013.9
20260902194408 98 175 3.0 6.0 0.00 0.00 0.00 42 1014.1
20260902193903 98 173 5.0 7.0 0.00 0.00 0.00 43 1014.2
20260902193400 97 171 3.0 5.0 0.00 0.00 0.00 43 1014.0
20260902192858 98 146 2.0 6.0 0.00 0.00 0.00 43 1014.4
20260902192357 97 213 4.0 5.0 0.00 0.00 0.00 44 1014.2
20260902191851 97 154 5.0 8.0 0.00 0.00 0.00 43 1014.3
20260902191347 97 159 2.0 2.0 0.00 0.00 0.00 45 1014.3
20260902190842 96 169 4.0 5.0 0.00 0.00 0.00 45 1014.4
20260902190341 95 191 5.0 7.0 0.00 0.00 0.00 44 1014.6
20260902185837 96 175 5.0 7.0 0.00 0.00 0.00 45 1014.5
20260902185332 96 163 1.0 5.0 0.00 0.00 0.00 46 1014.5
20260902184828 95 189 1.0 2.0 0.00 0.00 0.00 46 1014.7
20260902184323 95 187 4.0 5.0 0.00 0.00 0.00 46 1014.7
20260902183819 95 173 7.0 11.0 0.00 0.00 0.00 45 1014.8
20260902183315 95 157 1.0 5.0 0.00 0.00 0.00 45 1015.0
20260902182810 95 180 8.0 9.0 0.00 0.00 0.00 45 1015.2
20260902182305 95 294 4.0 8.0 0.00 0.00 0.00 45 1015.0
20260902181757 95 172 4.0 9.0 0.00 0.00 0.00 45 1015.0
20260902181252 95 215 2.0 5.0 0.00 0.00 0.00 46 1015.2
20260902180747 95 307 4.0 7.0 0.00 0.00 0.00 46 1015.2
20260902180243 95 173 4.0 6.0 0.00 0.00 0.00 47 1015.4
20260902175737 95 321 3.0 5.0 0.00 0.00 0.00 46 1015.2
20260902175233 93 156 3.0 3.0 0.00 0.00 0.00 48 1015.4
20260902174728 94 316 3.0 5.0 0.00 0.00 0.00 48 1015.1
20260902174224 94 148 1.0 5.0 0.00 0.00 0.00 48 1015.4
20260902173719 93 300 2.0 7.0 0.00 0.00 0.00 50 1015.5
20260902173214 93 170 2.0 5.0 0.00 0.00 0.00 50 1015.6
20260902172709 92 215 3.0 6.0 0.00 0.00 0.00 51 1015.9
20260902172208 93 204 5.0 7.0 0.00 0.00 0.00 50 1015.8
20260902171703 93 144 3.0 9.0 0.00 0.00 0.00 51 1016.0
20260902171159 93 191 5.0 10.0 0.00 0.00 0.00 51 1015.8
20260902170654 94 206 4.0 5.0 0.00 0.00 0.00 52 1016.0
20260902170149 93 161 2.0 5.0 0.00 0.00 0.00 53 1015.9
20260902165644 92 289 5.0 8.0 0.00 0.00 0.00 53 1016.0
20260902165138 92 213 2.0 7.0 0.00 0.00 0.00 53 1016.0
20260902164634 92 187 8.0 9.0 0.00 0.00 0.00 53 1016.2
20260902164133 93 168 2.0 6.0 0.00 0.00 0.00 55 1016.3
20260902163628 92 169 4.0 6.0 0.00 0.00 0.00 55 1015.9
20260902163127 92 170 4.0 6.0 0.00 0.00 0.00 55 1016.0
20260902162626 91 162 2.0 8.0 0.00 0.00 0.00 55 1016.0
20260902162121 91 171 2.0 11.0 0.00 0.00 0.00 56 1016.2
20260902161616 91 264 3.0 5.0 0.00 0.00 0.00 56 1016.0
20260902161112 90 181 3.0 3.0 0.00 0.00 0.00 56 1016.3
20260902160609 90 191 2.0 7.0 0.00 0.00 0.00 56 1016.2
20260902160103 90 177 3.0 8.0 0.00 0.00 0.00 57 1016.2
20260902155602 90 172 3.0 5.0 0.00 0.00 0.00 57 1016.2
20260902155100 89 174 1.0 5.0 0.00 0.00 0.00 59 1016.2
20260902154556 89 157 2.0 6.0 0.00 0.00 0.00 57 1016.3
20260902154050 89 155 2.0 3.0 0.00 0.00 0.00 59 1016.2
20260902153549 89 169 2.0 5.0 0.00 0.00 0.00 60 1016.2
20260902153045 89 171 3.0 5.0 0.00 0.00 0.00 60 1016.0
20260902152541 88 157 3.0 3.0 0.00 0.00 0.00 60 1016.2
20260902152036 88 251 2.0 3.0 0.00 0.00 0.00 60 1015.8
20260902151532 88 159 6.0 8.0 0.00 0.00 0.00 60 1016.3
20260902151031 88 210 3.0 5.0 0.00 0.00 0.00 60 1016.3
20260902150527 87 183 3.0 6.0 0.00 0.00 0.00 61 1016.0
20260902150022 87 192 3.0 3.0 0.00 0.00 0.00 63 1016.2
20260902145517 87 177 3.0 5.0 0.00 0.00 0.00 63 1016.0
20260902145017 86 179 3.0 5.0 0.00 0.00 0.00 64 1016.2
20260902144513 86 180 1.0 3.0 0.00 0.00 0.00 65 1016.2
20260902144008 86 165 1.0 6.0 0.00 0.00 0.00 65 1016.2
20260902143503 85 177 1.0 3.0 0.00 0.00 0.00 66 1016.0
20260902142958 84 177 1.0 3.0 0.00 0.00 0.00 67 1016.0
20260902142454 84 168 1.0 5.0 0.00 0.00 0.00 67 1016.2
20260902141949 83 166 2.0 3.0 0.00 0.00 0.00 68 1016.2
20260902141443 83 166 2.0 3.0 0.00 0.00 0.00 69 1016.2
20260902140938 83 168 2.0 5.0 0.00 0.00 0.00 68 1016.0
20260902140433 82 165 0.0 2.0 0.00 0.00 0.00 70 1016.2
20260902135932 82 165 1.0 3.0 0.00 0.00 0.00 70 1016.4
20260902135428 81 166 1.0 5.0 0.00 0.00 0.00 70 1015.9
20260902134927 81 166 3.0 5.0 0.00 0.00 0.00 71 1016.2
20260902134423 80 165 3.0 3.0 0.00 0.00 0.00 72 1016.2
20260902133918 80 165 0.0 2.0 0.00 0.00 0.00 73 1016.3
20260902133413 80 165 1.0 2.0 0.00 0.00 0.00 73 1016.2
20260902132907 79 166 0.0 3.0 0.00 0.00 0.00 74 1016.2
20260902132403 78 166 2.0 2.0 0.00 0.00 0.00 75 1016.3
20260902131858 78 166 0.0 0.0 0.00 0.00 0.00 77 1016.2
20260902131355 77 166 0.0 0.0 0.00 0.00 0.00 78 1016.2
20260902130854 76 166 0.0 0.0 0.00 0.00 0.00 79 1016.3
20260902130350 76 166 0.0 0.0 0.00 0.00 0.00 80 1016.2
20260902125844 75 166 0.0 0.0 0.00 0.00 0.00 81 1016.2
20260902125340 75 166 0.0 0.0 0.00 0.00 0.00 81 1016.0
20260902124836 75 166 0.0 0.0 0.00 0.00 0.00 81 1016.2
20260902124332 75 166 0.0 0.0 0.00 0.00 0.00 82 1016.0
20260902123827 74 166 0.0 0.0 0.00 0.00 0.00 82 1016.0
20260902123324 74 166 0.0 0.0 0.00 0.00 0.00 82 1015.9
20260902122822 75 166 0.0 0.0 0.00 0.00 0.00 81 1015.9
20260902122318 74 166 0.0 0.0 0.00 0.00 0.00 81 1015.8
20260902121817 75 166 0.0 0.0 0.00 0.00 0.00 81 1015.8
20260902121313 75 166 0.0 0.0 0.00 0.00 0.00 80 1016.0
20260902120808 75 166 0.0 0.0 0.00 0.00 0.00 80 1015.8
20260902120304 75 166 0.0 0.0 0.00 0.00 0.00 80 1015.8
20260902115759 75 166 0.0 0.0 0.00 0.00 0.00 80 1015.7
20260902115256 75 166 0.0 0.0 0.00 0.00 0.00 79 1015.8
20260902114752 75 166 0.0 0.0 0.00 0.00 0.00 79 1015.7
20260902114248 75 166 0.0 0.0 0.00 0.00 0.00 78 1015.8
20260902113747 76 166 0.0 0.0 0.00 0.00 0.00 78 1015.5
20260902113243 76 166 0.0 0.0 0.00 0.00 0.00 77 1015.6
20260902112741 76 166 0.0 0.0 0.00 0.00 0.00 77 1015.6
20260902112239 76 166 0.0 0.0 0.00 0.00 0.00 77 1015.6
20260902111734 76 166 0.0 0.0 0.00 0.00 0.00 77 1015.5
20260902111231 76 166 0.0 0.0 0.00 0.00 0.00 76 1015.4
20260902110726 77 166 0.0 0.0 0.00 0.00 0.00 76 1015.3
20260902110222 77 166 0.0 0.0 0.00 0.00 0.00 75 1015.3
20260902105721 77 166 0.0 0.0 0.00 0.00 0.00 75 1015.3
20260902105216 77 166 0.0 0.0 0.00 0.00 0.00 74 1015.5
20260902104712 77 166 0.0 0.0 0.00 0.00 0.00 74 1015.6
20260902104208 77 166 0.0 0.0 0.00 0.00 0.00 74 1015.4
20260902103707 77 166 0.0 0.0 0.00 0.00 0.00 74 1015.1
20260902103202 77 166 0.0 0.0 0.00 0.00 0.00 74 1015.2
20260902102658 77 166 0.0 0.0 0.00 0.00 0.00 74 1015.3
20260902102155 77 166 0.0 0.0 0.00 0.00 0.00 74 1014.9
20260902101650 77 166 0.0 0.0 0.00 0.00 0.00 74 1015.1
20260902101150 77 166 0.0 0.0 0.00 0.00 0.00 75 1015.1
20260902100644 77 166 0.0 0.0 0.00 0.00 0.00 75 1014.9
20260902100139 76 166 0.0 0.0 0.00 0.00 0.00 76 1015.0
20260902095638 76 166 0.0 0.0 0.00 0.00 0.00 76 1014.9
20260902095138 76 166 0.0 0.0 0.00 0.00 0.00 77 1014.9
20260902094633 76 166 0.0 0.0 0.00 0.00 0.00 78 1015.0
20260902094130 75 166 0.0 0.0 0.00 0.00 0.00 78 1015.1
20260902093629 75 166 0.0 0.0 0.00 0.00 0.00 80 1014.7
20260902093124 74 166 0.0 0.0 0.00 0.00 0.00 82 1014.8
20260902092619 74 166 0.0 0.0 0.00 0.00 0.00 82 1014.9
20260902092114 74 166 0.0 0.0 0.00 0.00 0.00 83 1014.7
20260902091609 73 166 0.0 0.0 0.00 0.00 0.00 84 1014.8
20260902091105 73 166 0.0 0.0 0.00 0.00 0.00 86 1014.8
20260902090601 72 166 0.0 0.0 0.00 0.00 0.00 88 1014.9
20260902090059 72 166 0.0 0.0 0.00 0.00 0.00 91 1015.0
20260902085554 71 166 0.0 0.0 0.00 0.00 0.00 92 1014.9
20260902085049 71 166 0.0 0.0 0.00 0.00 0.00 93 1014.7
20260902084546 71 166 0.0 0.0 0.00 0.00 0.00 93 1014.7
20260902084041 72 166 0.0 0.0 0.00 0.00 0.00 93 1015.0
20260902083536 72 166 0.0 0.0 0.00 0.00 0.00 93 1015.0
20260902083036 72 166 0.0 0.0 0.00 0.00 0.00 93 1014.8
20260902082532 72 166 0.0 0.0 0.00 0.00 0.00 92 1014.5
20260902082028 72 166 0.0 0.0 0.00 0.00 0.00 92 1014.6
20260902081525 72 166 0.0 0.0 0.00 0.00 0.00 92 1014.6
20260902081024 72 166 0.0 0.0 0.00 0.00 0.00 91 1014.4
20260902080520 72 166 0.0 0.0 0.00 0.00 0.00 91 1014.3
20260902080016 73 166 0.0 0.0 0.00 0.00 0.00 91 1014.3
20260902075510 72 166 0.0 0.0 0.00 0.00 0.00 91 1014.6
20260902075007 73 166 0.0 0.0 0.00 0.00 0.00 90 1014.6
20260902074501 73 166 0.0 0.0 0.00 0.00 0.00 90 1014.5
20260902073956 73 166 0.0 0.0 0.00 0.00 0.00 90 1014.7
20260902073452 73 166 0.0 0.0 0.00 0.00 0.00 90 1014.5
20260902072948 72 166 0.0 0.0 0.00 0.00 0.00 90 1014.6
20260902072444 73 166 0.0 0.0 0.00 0.00 0.00 91 1014.4
20260902071940 73 166 0.0 0.0 0.00 0.00 0.00 91 1014.4
20260902071439 73 166 0.0 0.0 0.00 0.00 0.00 91 1014.5
20260902070936 73 166 0.0 0.0 0.00 0.00 0.00 91 1014.5
20260902070431 73 166 1.0 1.0 0.00 0.00 0.00 91 1014.7
20260902065930 73 166 0.0 0.0 0.00 0.00 0.00 91 1014.5
20260902065425 73 166 0.0 0.0 0.00 0.00 0.00 91 1014.7
20260902064921 73 166 0.0 0.0 0.00 0.00 0.00 90 1014.8
20260902064416 74 166 0.0 0.0 0.00 0.00 0.00 90 1014.6
20260902063911 74 166 0.0 0.0 0.00 0.00 0.00 90 1014.7
20260902063411 73 166 0.0 0.0 0.00 0.00 0.00 89 1014.8
20260902062907 74 166 0.0 0.0 0.00 0.00 0.00 89 1014.6
20260902062406 74 166 0.0 0.0 0.00 0.00 0.00 89 1014.8
20260902061905 74 166 0.0 0.0 0.00 0.00 0.00 89 1014.8
20260902061401 74 166 0.0 0.0 0.00 0.00 0.00 89 1014.6
20260902060857 74 166 0.0 0.0 0.00 0.00 0.00 89 1014.8